This is the latest recevied weather packets stored in our database for station/object IA5FYI-13. If no packets are shown the sender has not sent any weather packets the latest 10 day(s).
| Time | Temp. | Humidity | Pressure | Rain* | Wind** | Luminosity | Snow |
|---|---|---|---|---|---|---|---|
| 1777609509 | 13.89° C | 45% | 1021.7 hPa | 0 mm | - | - | - |
| 1777609212 | 13.89° C | 46% | 1021.7 hPa | 0 mm | - | - | - |
| 1777608912 | 13.89° C | 45% | 1021.7 hPa | 0 mm | - | - | - |
| 1777608614 | 13.89° C | 44% | 1021.7 hPa | 0 mm | - | - | - |
| 1777608310 | 13.89° C | 42% | 1021.7 hPa | 0 mm | - | - | - |
| 1777608033 | 13.89° C | 45% | 1021 hPa | 0 mm | - | - | - |
| 1777607708 | 13.89° C | 44% | 1021.3 hPa | 0 mm | - | - | - |
| 1777607413 | 13.89° C | 44% | 1021 hPa | 0 mm | - | - | - |
| 1777607112 | 13.89° C | 45% | 1021.3 hPa | 0 mm | - | - | - |
| 1777606812 | 13.89° C | 43% | 1021 hPa | 0 mm | - | - | - |
| 1777606508 | 13.89° C | 43% | 1021.3 hPa | 0 mm | - | - | - |
| 1777606222 | 13.89° C | 45% | 1021 hPa | 0 mm | - | - | - |
| 1777605908 | 13.89° C | 45% | 1021 hPa | 0 mm | - | - | - |
| 1777605612 | 13.89° C | 44% | 1020.7 hPa | 0 mm | - | - | - |
| 1777605313 | 13.89° C | 45% | 1021.3 hPa | 0 mm | - | - | - |
| 1777605012 | 13.89° C | 44% | 1020.7 hPa | 0 mm | - | - | - |
| 1777604709 | 13.89° C | 45% | 1021 hPa | 0 mm | - | - | - |
| 1777604432 | 13.89° C | 44% | 1021 hPa | 0 mm | - | - | - |
| 1777604108 | 13.89° C | 44% | 1021 hPa | 0 mm | - | - | - |
| 1777603812 | 13.89° C | 44% | 1021 hPa | 0 mm | - | - | - |
| 1777603512 | 13.89° C | 43% | 1021 hPa | 0 mm | - | - | - |
| 1777603212 | 13.89° C | 42% | 1021 hPa | 0 mm | - | - | - |
| 1777602909 | 13.89° C | 42% | 1021 hPa | 0 mm | - | - | - |
| 1777602623 | 13.89° C | 42% | 1021 hPa | 0 mm | - | - | - |
| 1777602309 | 13.89° C | 43% | 1021 hPa | 0 mm | - | - | - |
* Rain latest hour (hover to see other rain measurements)
** Current wind speed in m/s (hover to see current wind gust speed)